Location: Drocourt
(49.0571°N, 1.7669°E)
Time: 15:41:48
(UTC+00:00)

Vanguard 3 - Pass Details

Date: 22 April 2024
Orbit: 509 x 3233 km, 33.3° (Epoch: 23 May)

Event Time Altitude Azimuth Distance (km) Brightness Sun altitude
Rises 04:57:05 0° 245° (WSW) 6,343 11.0 0.7°
Reaches altitude 10° 05:02:27 10° 237° (WSW) 4,888 10.5 1.5°
Maximum altitude 05:12:51 30° 184° (S) 2,564 9.6 3.1°
Drops below altitude 10° 05:19:29 10° 126° (SE) 3,055 10.8 4.2°
Sets 05:22:01 0° 115° (ESE) 3,713 11.5 4.6°
